When you browse on this site, cookies collect data to enhance your experience and personalize the content and advertising you see.
Visit our Privacy Policy to learn more. By continuing to use the site, you agree to this use of cookies and data.
  • In Österreich
  • Länderverzeichnis
  • Für 7 Tage
  • Wassertemperatur
  • Satellitenkarten
  • Wetterkarte
  • News
  • Widgets
  • user-avatar
    Anmelden

    Stündliche Wetter Rivnopillya

    Heute, 19 Mai, Sonntag

    Zeit Temperatur Niederschläge Wind Luftdruck Luftfeuchtigkeit
    00:00 +21°C° 0 mm 5 m/S 749 mmHg 75%
    01:00 +21°C° 0 mm 5 m/S 749 mmHg 73%
    02:00 +20°C° 0 mm 5 m/S 749 mmHg 71%
    03:00 +20°C° 0 mm 5 m/S 750 mmHg 71%
    04:00 +19°C° 0 mm 5 m/S 750 mmHg 71%
    05:00 +19°C° 0 mm 5 m/S 750 mmHg 71%
    06:00 +20°C° 0 mm 5 m/S 750 mmHg 67%
    07:00 +21°C° 0 mm 6 m/S 750 mmHg 64%
    08:00 +22°C° 0 mm 6 m/S 750 mmHg 60%
    09:00 +23°C° 0 mm 6 m/S 751 mmHg 57%
    10:00 +26°C° 0 mm 6 m/S 751 mmHg 54%
    11:00 +27°C° 0 mm 6 m/S 751 mmHg 52%
    12:00 +28°C° 0 mm 6 m/S 751 mmHg 50%
    13:00 +29°C° 0 mm 6 m/S 751 mmHg 48%
    14:00 +29°C° 0 mm 6 m/S 751 mmHg 46%
    15:00 +29°C° 0 mm 6 m/S 751 mmHg 48%
    16:00 +29°C° 0 mm 5 m/S 751 mmHg 50%
    17:00 +28°C° 0 mm 5 m/S 751 mmHg 52%
    18:00 +27°C° 0 mm 5 m/S 751 mmHg 56%
    19:00 +25°C° 0 mm 4 m/S 751 mmHg 60%
    20:00 +23°C° 0 mm 4 m/S 752 mmHg 64%
    21:00 +22°C° 0 mm 4 m/S 752 mmHg 67%
    22:00 +21°C° 0 mm 4 m/S 752 mmHg 70%
    23:00 +20°C° 0 mm 4 m/S 752 mmHg 73%

    Morgen, 20 Mai, Montag

    Zeit Temperatur Niederschläge Wind Luftdruck Luftfeuchtigkeit
    00:00 +19°C° 0 mm 4 m/S 752 mmHg 73%
    01:00 +19°C° 0 mm 4 m/S 753 mmHg 73%
    02:00 +19°C° 0 mm 5 m/S 753 mmHg 72%
    03:00 +17°C° 0 mm 5 m/S 753 mmHg 72%
    04:00 +17°C° 0 mm 5 m/S 753 mmHg 72%
    05:00 +17°C° 0 mm 5 m/S 753 mmHg 72%
    06:00 +19°C° 0 mm 6 m/S 753 mmHg 72%
    07:00 +20°C° 0 mm 6 m/S 754 mmHg 72%
    08:00 +21°C° 0 mm 7 m/S 754 mmHg 72%
    09:00 +23°C° 0 mm 7 m/S 754 mmHg 67%
    10:00 +24°C° 0 mm 7 m/S 754 mmHg 62%
    11:00 +27°C° 0 mm 7 m/S 754 mmHg 57%
    12:00 +27°C° 0.1 mm 7 m/S 754 mmHg 55%
    13:00 +28°C° 0.1 mm 7 m/S 754 mmHg 53%
    14:00 +28°C° 0.1 mm 7 m/S 754 mmHg 51%
    15:00 +27°C° 0 mm 7 m/S 754 mmHg 53%
    16:00 +27°C° 0 mm 7 m/S 754 mmHg 55%
    17:00 +26°C° 0 mm 7 m/S 754 mmHg 56%
    18:00 +24°C° 0 mm 6 m/S 754 mmHg 60%
    19:00 +22°C° 0 mm 5 m/S 754 mmHg 64%
    20:00 +20°C° 0 mm 4 m/S 754 mmHg 68%
    21:00 +20°C° 0 mm 4 m/S 754 mmHg 68%
    22:00 +19°C° 0 mm 4 m/S 755 mmHg 69%
    23:00 +18°C° 0 mm 4 m/S 755 mmHg 69%

    übermorgen, 21 Mai, Dienstag

    Zeit Temperatur Niederschläge Wind Luftdruck Luftfeuchtigkeit
    00:00 +17°C° 0 mm 5 m/S 755 mmHg 69%
    01:00 +17°C° 0 mm 5 m/S 755 mmHg 68%
    02:00 +17°C° 0 mm 5 m/S 755 mmHg 68%
    03:00 +17°C° 0 mm 5 m/S 755 mmHg 71%
    04:00 +16°C° 0 mm 5 m/S 755 mmHg 74%
    05:00 +16°C° 0 mm 5 m/S 755 mmHg 77%
    06:00 +19°C° 0 mm 6 m/S 755 mmHg 74%
    07:00 +20°C° 0 mm 7 m/S 755 mmHg 71%
    08:00 +21°C° 0 mm 7 m/S 755 mmHg 68%
    09:00 +23°C° 0 mm 7 m/S 755 mmHg 64%
    10:00 +24°C° 0 mm 8 m/S 754 mmHg 59%
    11:00 +26°C° 0 mm 8 m/S 754 mmHg 54%
    12:00 +27°C° 0 mm 8 m/S 754 mmHg 53%
    13:00 +27°C° 0 mm 8 m/S 754 mmHg 52%
    14:00 +27°C° 0 mm 7 m/S 754 mmHg 50%
    15:00 +26°C° 0 mm 7 m/S 753 mmHg 55%
    16:00 +24°C° 0 mm 7 m/S 753 mmHg 59%
    17:00 +23°C° 0 mm 7 m/S 753 mmHg 63%
    18:00 +22°C° 0.2 mm 6 m/S 753 mmHg 70%
    19:00 +20°C° 0.2 mm 5 m/S 753 mmHg 77%
    20:00 +19°C° 0.2 mm 5 m/S 753 mmHg 84%
    21:00 +18°C° 0 mm 4 m/S 753 mmHg 85%
    22:00 +18°C° 0 mm 4 m/S 753 mmHg 85%
    23:00 +18°C° 0 mm 4 m/S 753 mmHg 86%

    22 Mai, Mittwoch

    Zeit Temperatur Niederschläge Wind Luftdruck Luftfeuchtigkeit
    00:00 +18°C° 0.2 mm 3 m/S 753 mmHg 87%
    01:00 +18°C° 0.2 mm 3 m/S 753 mmHg 87%
    02:00 +17°C° 0.2 mm 2 m/S 752 mmHg 88%
    03:00 +17°C° 0.4 mm 2 m/S 752 mmHg 88%
    04:00 +17°C° 0.4 mm 2 m/S 752 mmHg 89%
    05:00 +17°C° 0.4 mm 2 m/S 752 mmHg 90%
    06:00 +18°C° 0.1 mm 2 m/S 752 mmHg 84%
    07:00 +19°C° 0.1 mm 3 m/S 752 mmHg 78%
    08:00 +20°C° 0.1 mm 4 m/S 752 mmHg 71%
    09:00 +22°C° 0.3 mm 4 m/S 751 mmHg 66%
    10:00 +23°C° 0.3 mm 4 m/S 751 mmHg 61%
    11:00 +25°C° 0.3 mm 4 m/S 751 mmHg 56%
    12:00 +25°C° 1.4 mm 4 m/S 751 mmHg 57%
    13:00 +25°C° 1.4 mm 4 m/S 750 mmHg 58%
    14:00 +25°C° 1.4 mm 4 m/S 750 mmHg 59%
    15:00 +25°C° 0.9 mm 3 m/S 750 mmHg 59%
    16:00 +24°C° 0.9 mm 3 m/S 750 mmHg 59%
    17:00 +24°C° 0.9 mm 2 m/S 750 mmHg 59%
    18:00 +21°C° 0 mm 3 m/S 750 mmHg 64%
    19:00 +20°C° 0 mm 3 m/S 750 mmHg 69%
    20:00 +18°C° 0 mm 3 m/S 750 mmHg 73%
    21:00 +17°C° 0.1 mm 3 m/S 750 mmHg 77%
    22:00 +17°C° 0.1 mm 3 m/S 750 mmHg 81%
    23:00 +16°C° 0.1 mm 3 m/S 750 mmHg 85%

    23 Mai, Donnerstag

    Zeit Temperatur Niederschläge Wind Luftdruck Luftfeuchtigkeit
    00:00 +16°C° 0 mm 3 m/S 750 mmHg 86%
    01:00 +14°C° 0 mm 3 m/S 750 mmHg 88%
    02:00 +14°C° 0 mm 3 m/S 750 mmHg 89%
    03:00 +14°C° 0 mm 3 m/S 750 mmHg 89%
    04:00 +14°C° 0 mm 3 m/S 750 mmHg 90%
    05:00 +14°C° 0 mm 3 m/S 750 mmHg 90%
    06:00 +17°C° 0 mm 3 m/S 750 mmHg 81%
    07:00 +19°C° 0 mm 3 m/S 750 mmHg 72%
    08:00 +21°C° 0 mm 4 m/S 750 mmHg 62%
    09:00 +22°C° 0 mm 4 m/S 750 mmHg 57%
    10:00 +23°C° 0 mm 5 m/S 750 mmHg 52%
    11:00 +26°C° 0 mm 5 m/S 750 mmHg 47%
    12:00 +26°C° 0 mm 5 m/S 750 mmHg 46%
    13:00 +27°C° 0 mm 6 m/S 750 mmHg 45%
    14:00 +27°C° 0 mm 6 m/S 749 mmHg 43%
    15:00 +27°C° 0 mm 5 m/S 749 mmHg 46%
    16:00 +26°C° 0 mm 5 m/S 749 mmHg 48%
    17:00 +26°C° 0 mm 4 m/S 749 mmHg 50%
    18:00 +23°C° 0 mm 4 m/S 749 mmHg 55%
    19:00 +22°C° 0 mm 4 m/S 749 mmHg 61%
    20:00 +20°C° 0 mm 4 m/S 750 mmHg 66%
    21:00 +19°C° 0 mm 3 m/S 750 mmHg 71%
    22:00 +18°C° 0 mm 3 m/S 750 mmHg 77%
    23:00 +17°C° 0 mm 3 m/S 750 mmHg 82%

    24 Mai, Freitag

    Zeit Temperatur Niederschläge Wind Luftdruck Luftfeuchtigkeit
    00:00 +16°C° 0 mm 2 m/S 750 mmHg 84%
    01:00 +16°C° 0 mm 2 m/S 750 mmHg 85%
    02:00 +16°C° 0 mm 2 m/S 749 mmHg 87%
    03:00 +16°C° 0 mm 2 m/S 749 mmHg 88%
    04:00 +16°C° 0 mm 2 m/S 749 mmHg 89%
    05:00 +16°C° 0 mm 2 m/S 749 mmHg 89%
    06:00 +18°C° 0 mm 3 m/S 750 mmHg 82%
    07:00 +20°C° 0 mm 3 m/S 750 mmHg 75%
    08:00 +22°C° 0 mm 3 m/S 750 mmHg 67%
    09:00 +24°C° 0.7 mm 3 m/S 750 mmHg 62%
    10:00 +25°C° 0.7 mm 4 m/S 749 mmHg 58%
    11:00 +27°C° 0.7 mm 4 m/S 749 mmHg 53%
    12:00 +27°C° 0.2 mm 4 m/S 749 mmHg 52%
    13:00 +27°C° 0.2 mm 4 m/S 748 mmHg 52%
    14:00 +27°C° 0.2 mm 3 m/S 748 mmHg 52%
    15:00 +27°C° 0 mm 4 m/S 748 mmHg 51%
    16:00 +27°C° 0 mm 4 m/S 748 mmHg 50%
    17:00 +27°C° 0 mm 4 m/S 747 mmHg 49%
    18:00 +25°C° 0 mm 3 m/S 747 mmHg 54%
    19:00 +22°C° 0 mm 3 m/S 747 mmHg 60%
    20:00 +20°C° 0 mm 2 m/S 747 mmHg 65%
    21:00 +20°C° 0 mm 2 m/S 747 mmHg 66%
    22:00 +20°C° 0 mm 2 m/S 747 mmHg 67%
    23:00 +19°C° 0 mm 2 m/S 746 mmHg 68%
    Mehr zeigen